Location: A�t Bou Chrif
(32.7193°N, 5.2385°W)
Time: 00:03:04
(UTC+00:00)

Cosmos 2322 Rocket - Pass Details

Date: 08 August 2020
Orbit: 831 x 852 km, 71.0° (Epoch: 18 September)

Event Time Altitude Azimuth Distance (km) Brightness Sun altitude
Rises 21:59:57 0° 358° (N) 3,415 6.0 -30.2°
Reaches altitude 10° 22:03:26 10° 20° (NNE) 2,479 4.9 -30.6°
Enters shadow 22:05:46 15° 44° (NE) 2,124 4.3 -31.0°
